QPF
0.02 0.02 0.01 0.02 0.03 0.05 0.07 0.06 0.04 0.04 0.04 0.01 0.01 0.01 0.01 0.01 0.01 0.02 0.03 0.03 0.05 0.06 0.06 0.06 0.06 0.07 0.07 0.06 0.07 0.08 0.06 0.06 0.06 0.06 0.04 0.04 0.03 0.03 0.03 0.03 0.04 0.04 0.04
0.02 0.02 0.02 0.02 0.02 0.03 0.05 0.07 0.06 0.05 0.04 0.02 0.01 0.01 0.01 0.01 0.01 0.02 0.02 0.02 0.03 0.04 0.04 0.06 0.06 0.07 0.07 0.07 0.06 0.07 0.08 0.07 0.06 0.07 0.07 0.06 0.06 0.05 0.05 0.04 0.05 0.04 0.03
0.03 0.03 0.03 0.02 0.02 0.02 0.02 0.04 0.06 0.06 0.04 0.03 0.01 0.01 0.01 0.01 0.01 0.02 0.02 0.02 0.02 0.02 0.03 0.05 0.06 0.06 0.06 0.07 0.07 0.07 0.09 0.10 0.09 0.08 0.10 0.09 0.08 0.07 0.07 0.06 0.06 0.06 0.06
0.04 0.04 0.03 0.02 0.02 0.02 0.02 0.02 0.03 0.05 0.05 0.04 0.02 0.01 0.02 0.01 0.02 0.02 0.02 0.02 0.02 0.02 0.03 0.05 0.05 0.05 0.05 0.06 0.06 0.07 0.09 0.10 0.11 0.12 0.13 0.15 0.14 0.11 0.09 0.08 0.06 0.06 0.06
0.04 0.04 0.04 0.03 0.02 0.02 0.03 0.03 0.03 0.04 0.05 0.05 0.03 0.02 0.02 0.02 0.01 0.01 0.02 0.02 0.01 0.02 0.02 0.04 0.06 0.05 0.06 0.08 0.08 0.07 0.07 0.07 0.07 0.08 0.11 0.15 0.18 0.16 0.11 0.09 0.08 0.07 0.06
0.03 0.04 0.04 0.04 0.03 0.03 0.03 0.04 0.03 0.04 0.04 0.05 0.04 0.03 0.03 0.02 0.01 0.01 0.02 0.02 0.02 0.03 0.04 0.04 0.06 0.08 0.09 0.13 0.12 0.07 0.06 0.06 0.06 0.05 0.05 0.06 0.07 0.09 0.08 0.08 0.09 0.08 0.07
0.04 0.04 0.05 0.05 0.04 0.04 0.03 0.04 0.04 0.04 0.05 0.05 0.05 0.05 0.03 0.02 0.02 0.02 0.02 0.03 0.03 0.03 0.03 0.04 0.05 0.07 0.08 0.09 0.11 0.09 0.07 0.06 0.06 0.05 0.04 0.04 0.04 0.04 0.03 0.03 0.04 0.06 0.07
0.04 0.05 0.05 0.05 0.05 0.04 0.04 0.05 0.04 0.04 0.06 0.05 0.05 0.05 0.05 0.04 0.03 0.03 0.03 0.03 0.03 0.03 0.03 0.03 0.04 0.05 0.05 0.06 0.07 0.09 0.08 0.07 0.06 0.05 0.04 0.04 0.04 0.04 0.04 0.03 0.03 0.03 0.04
0.03 0.04 0.04 0.05 0.05 0.05 0.06 0.07 0.06 0.05 0.05 0.05 0.05 0.04 0.04 0.04 0.03 0.03 0.03 0.03 0.03 0.03 0.03 0.03 0.03 0.03 0.04 0.05 0.05 0.04 0.03 0.03 0.03 0.04 0.04 0.03 0.03 0.04 0.04 0.04 0.03 0.02 0.02
0.04 0.04 0.04 0.04 0.05 0.04 0.05 0.05 0.05 0.05 0.05 0.05 0.05 0.04 0.04 0.03 0.02 0.03 0.03 0.03 0.04 0.04 0.04 0.03 0.03 0.03 0.03 0.03 0.04 0.04 0.03 0.02 0.02 0.03 0.04 0.03 0.03 0.03 0.04 0.04 0.04 0.04 0.03
0.03 0.04 0.04 0.04 0.05 0.05 0.05 0.05 0.05 0.05 0.04 0.04 0.04 0.03 0.03 0.03 0.03 0.02 0.02 0.03 0.03 0.03 0.04 0.04 0.03 0.03 0.03 0.03 0.03 0.04 0.04 0.03 0.03 0.03 0.03 0.04 0.04 0.04 0.04 0.04 0.04 0.04 0.04
0.02 0.03 0.03 0.04 0.05 0.05 0.05 0.06 0.06 0.05 0.04 0.03 0.03 0.02 0.02 0.02 0.02 0.02 0.02 0.02 0.02 0.03 0.03 0.04 0.04 0.04 0.04 0.04 0.03 0.04 0.03 0.03 0.03 0.03 0.03 0.04 0.04 0.04 0.04 0.04 0.04 0.04 0.04
0.02 0.02 0.03 0.04 0.04 0.05 0.05 0.05 0.06 0.06 0.04 0.02 0.02 0.02 0.01 0.01 0.01 0.02 0.01 0.01 0.02 0.02 0.02 0.03 0.04 0.04 0.04 0.04 0.04 0.04 0.03 0.03 0.03 0.03 0.04 0.04 0.04 0.04 0.04 0.03 0.04 0.03 0.03
0.01 0.02 0.04 0.05 0.04 0.05 0.05 0.05 0.05 0.06 0.05 0.03 0.02 0.02 0.01 0.01 0.01 0.01 0.01 0.01 0.01 0.01 0.01 0.01 0.02 0.03 0.04 0.05 0.05 0.05 0.04 0.03 0.03 0.03 0.04 0.04 0.04 0.04 0.04 0.03 0.03 0.03 0.03
0.02 0.02 0.05 0.06 0.05 0.05 0.06 0.05 0.04 0.05 0.06 0.04 0.03 0.02 0.02 0.01 0.01 0.01 0.01 0.01 0.01 0.01 0.01 0.01 0.01 0.01 0.02 0.04 0.06 0.06 0.05 0.04 0.03 0.03 0.03 0.03 0.03 0.03 0.03 0.03 0.03 0.03 0.03
0.03 0.03 0.04 0.06 0.06 0.06 0.07 0.07 0.05 0.04 0.05 0.05 0.03 0.03 0.02 0.02 0.01 0.01 0.01 0.01 0.01 0.01 0.01 0.01 0.01 0.01 0.01 0.01 0.03 0.05 0.06 0.05 0.04 0.03 0.03 0.03 0.03 0.03 0.03 0.03 0.02 0.03 0.03
0.04 0.04 0.04 0.05 0.06 0.07 0.07 0.07 0.06 0.05 0.05 0.04 0.03 0.02 0.03 0.03 0.02 0.01 0.01 0.01 0.01 0.01 0.01 0.01 0.01 0.01 0.01 0.01 0.01 0.02 0.03 0.05 0.05 0.04 0.03 0.03 0.03 0.03 0.03 0.02 0.02 0.02 0.03
0.06 0.05 0.04 0.05 0.06 0.06 0.06 0.05 0.05 0.04 0.04 0.04 0.03 0.02 0.02 0.03 0.02 0.01 0.01 0.01 0.01 0.01 0.01 0.01 0.00 0.01 0.01 0.01 0.01 0.01 0.02 0.03 0.04 0.03 0.02 0.02 0.02 0.03 0.03 0.02 0.02 0.02 0.02
0.05 0.06 0.06 0.06 0.06 0.06 0.05 0.04 0.04 0.04 0.03 0.03 0.04 0.03 0.02 0.02 0.03 0.02 0.01 0.01 0.01 0.01 0.01 0.01 0.01 0.00 0.00 0.00 0.01 0.01 0.02 0.02 0.03 0.03 0.02 0.02 0.02 0.02 0.02 0.02 0.02 0.02 0.02
0.04 0.05 0.06 0.07 0.06 0.05 0.05 0.05 0.05 0.04 0.03 0.03 0.03 0.03 0.03 0.03 0.02 0.02 0.02 0.01 0.01 0.01 0.01 0.01 0.01 0.01 0.00 0.00 0.01 0.01 0.01 0.02 0.02 0.03 0.03 0.02 0.02 0.02 0.02 0.02 0.02 0.02 0.02
0.06 0.05 0.05 0.05 0.06 0.05 0.05 0.05 0.06 0.05 0.03 0.03 0.03 0.03 0.03 0.03 0.03 0.03 0.03 0.02 0.01 0.01 0.01 0.01 0.01 0.01 0.01 0.01 0.01 0.01 0.01 0.01 0.02 0.02 0.03 0.03 0.02 0.02 0.02 0.02 0.02 0.02 0.02
0.05 0.06 0.07 0.06 0.05 0.04 0.04 0.04 0.05 0.05 0.04 0.03 0.03 0.03 0.03 0.03 0.03 0.03 0.03 0.03 0.02 0.02 0.01 0.01 0.01 0.01 0.01 0.01 0.01 0.01 0.01 0.01 0.01 0.02 0.02 0.02 0.02 0.02 0.02 0.02 0.03 0.03 0.03
0.05 0.04 0.05 0.06 0.06 0.06 0.05 0.05 0.05 0.05 0.05 0.04 0.03 0.03 0.03 0.03 0.03 0.03 0.04 0.04 0.03 0.02 0.02 0.01 0.01 0.01 0.01 0.01 0.01 0.01 0.01 0.01 0.01 0.01 0.01 0.02 0.02 0.02 0.02 0.02 0.02 0.03 0.03
0.04 0.04 0.04 0.04 0.05 0.06 0.06 0.05 0.05 0.06 0.06 0.05 0.04 0.03 0.03 0.03 0.03 0.04 0.04 0.04 0.03 0.03 0.02 0.01 0.01 0.01 0.01 0.01 0.01 0.02 0.02 0.02 0.01 0.01 0.01 0.01 0.01 0.02 0.02 0.02 0.02 0.02 0.03
0.04 0.05 0.05 0.05 0.04 0.05 0.05 0.05 0.05 0.06 0.06 0.06 0.05 0.04 0.04 0.04 0.04 0.05 0.05 0.04 0.03 0.02 0.02 0.02 0.02 0.01 0.01 0.01 0.02 0.02 0.02 0.02 0.02 0.01 0.01 0.01 0.01 0.01 0.02 0.02 0.02 0.03 0.02
0.04 0.04 0.05 0.05 0.05 0.04 0.05 0.05 0.05 0.05 0.05 0.06 0.06 0.06 0.06 0.06 0.06 0.06 0.06 0.05 0.04 0.03 0.02 0.02 0.03 0.02 0.01 0.01 0.02 0.02 0.02 0.02 0.02 0.02 0.01 0.01 0.01 0.02 0.03 0.02 0.03 0.03 0.02
MSLP
1015.91 1016.56 1017.30 1018.08 1018.85 1019.54 1020.11 1020.51 1020.73 1020.82 1020.81 1020.77 1020.76 1020.83 1021.00 1021.27 1021.62 1022.03 1022.46 1022.88 1023.27 1023.62 1023.94 1024.23 1024.50 1024.78 1025.06 1025.34 1025.62 1025.90 1026.16 1026.41 1026.65 1026.89 1027.11 1027.34 1027.57 1027.80 1028.02 1028.24 1028.44 1028.62 1028.77
1015.65 1016.30 1017.04 1017.84 1018.65 1019.41 1020.07 1020.58 1020.92 1021.11 1021.20 1021.23 1021.26 1021.34 1021.50 1021.73 1022.04 1022.39 1022.76 1023.13 1023.47 1023.78 1024.07 1024.35 1024.63 1024.91 1025.20 1025.51 1025.82 1026.12 1026.42 1026.71 1026.98 1027.24 1027.49 1027.73 1027.97 1028.20 1028.43 1028.64 1028.83 1029.01 1029.15
1015.48 1016.13 1016.85 1017.65 1018.48 1019.29 1020.02 1020.63 1021.10 1021.42 1021.63 1021.76 1021.87 1021.98 1022.14 1022.34 1022.59 1022.87 1023.16 1023.45 1023.72 1023.97 1024.22 1024.47 1024.72 1025.00 1025.30 1025.62 1025.95 1026.28 1026.61 1026.93 1027.22 1027.51 1027.78 1028.05 1028.30 1028.54 1028.77 1028.97 1029.16 1029.31 1029.44
1015.42 1016.06 1016.76 1017.53 1018.35 1019.17 1019.95 1020.64 1021.22 1021.68 1022.02 1022.28 1022.49 1022.67 1022.84 1023.03 1023.23 1023.44 1023.65 1023.85 1024.04 1024.22 1024.41 1024.61 1024.84 1025.09 1025.38 1025.69 1026.03 1026.37 1026.72 1027.05 1027.38 1027.69 1027.99 1028.27 1028.53 1028.78 1029.01 1029.21 1029.39 1029.54 1029.66
1015.45 1016.07 1016.73 1017.46 1018.23 1019.03 1019.81 1020.56 1021.23 1021.81 1022.29 1022.68 1023.00 1023.27 1023.49 1023.69 1023.86 1024.02 1024.16 1024.29 1024.40 1024.52 1024.65 1024.80 1024.98 1025.20 1025.45 1025.75 1026.07 1026.41 1026.75 1027.10 1027.44 1027.77 1028.09 1028.38 1028.66 1028.92 1029.15 1029.35 1029.53 1029.68 1029.80
1015.49 1016.10 1016.72 1017.38 1018.08 1018.82 1019.59 1020.35 1021.07 1021.75 1022.34 1022.86 1023.30 1023.66 1023.96 1024.19 1024.37 1024.51 1024.62 1024.70 1024.77 1024.83 1024.91 1025.02 1025.15 1025.33 1025.55 1025.80 1026.09 1026.41 1026.74 1027.08 1027.42 1027.76 1028.08 1028.39 1028.68 1028.95 1029.19 1029.40 1029.58 1029.74 1029.88
1015.47 1016.08 1016.66 1017.25 1017.87 1018.53 1019.24 1019.98 1020.73 1021.46 1022.15 1022.77 1023.31 1023.77 1024.15 1024.44 1024.66 1024.82 1024.93 1025.00 1025.06 1025.11 1025.16 1025.24 1025.34 1025.48 1025.65 1025.86 1026.11 1026.38 1026.69 1027.01 1027.34 1027.68 1028.00 1028.32 1028.61 1028.89 1029.14 1029.36 1029.55 1029.73 1029.88
1015.31 1015.93 1016.48 1017.01 1017.56 1018.15 1018.80 1019.50 1020.24 1020.99 1021.72 1022.41 1023.04 1023.58 1024.03 1024.39 1024.67 1024.87 1025.02 1025.13 1025.21 1025.27 1025.34 1025.41 1025.50 1025.61 1025.75 1025.92 1026.12 1026.35 1026.62 1026.92 1027.23 1027.55 1027.88 1028.19 1028.48 1028.76 1029.01 1029.24 1029.44 1029.63 1029.80
1014.96 1015.61 1016.17 1016.68 1017.18 1017.72 1018.31 1018.96 1019.67 1020.41 1021.16 1021.87 1022.54 1023.13 1023.64 1024.05 1024.39 1024.65 1024.86 1025.03 1025.16 1025.28 1025.38 1025.48 1025.58 1025.68 1025.80 1025.94 1026.10 1026.30 1026.54 1026.81 1027.10 1027.41 1027.72 1028.03 1028.32 1028.58 1028.83 1029.05 1029.26 1029.45 1029.63
1014.41 1015.12 1015.72 1016.25 1016.75 1017.27 1017.83 1018.45 1019.12 1019.84 1020.56 1021.27 1021.93 1022.53 1023.05 1023.50 1023.88 1024.19 1024.46 1024.70 1024.91 1025.10 1025.27 1025.41 1025.54 1025.66 1025.77 1025.89 1026.04 1026.21 1026.43 1026.68 1026.95 1027.25 1027.55 1027.85 1028.12 1028.37 1028.60 1028.81 1029.01 1029.19 1029.37
1013.71 1014.50 1015.17 1015.77 1016.31 1016.86 1017.42 1018.03 1018.68 1019.36 1020.05 1020.71 1021.33 1021.90 1022.40 1022.84 1023.23 1023.58 1023.90 1024.21 1024.49 1024.75 1024.98 1025.19 1025.36 1025.50 1025.63 1025.75 1025.89 1026.06 1026.26 1026.51 1026.78 1027.07 1027.36 1027.64 1027.90 1028.13 1028.34 1028.52 1028.69 1028.85 1029.01
1012.94 1013.81 1014.57 1015.25 1015.88 1016.48 1017.09 1017.72 1018.37 1019.02 1019.66 1020.27 1020.83 1021.33 1021.77 1022.18 1022.55 1022.91 1023.26 1023.61 1023.95 1024.27 1024.57 1024.82 1025.03 1025.21 1025.35 1025.49 1025.64 1025.81 1026.02 1026.27 1026.54 1026.84 1027.13 1027.40 1027.64 1027.85 1028.03 1028.18 1028.32 1028.45 1028.59
1012.18 1013.10 1013.94 1014.71 1015.43 1016.12 1016.80 1017.47 1018.14 1018.78 1019.38 1019.93 1020.42 1020.85 1021.23 1021.58 1021.92 1022.26 1022.61 1022.99 1023.36 1023.73 1024.06 1024.36 1024.60 1024.80 1024.96 1025.11 1025.27 1025.45 1025.68 1025.94 1026.23 1026.53 1026.82 1027.09 1027.32 1027.51 1027.66 1027.79 1027.89 1028.00 1028.12
1011.51 1012.43 1013.30 1014.13 1014.93 1015.70 1016.45 1017.19 1017.89 1018.54 1019.13 1019.64 1020.08 1020.45 1020.77 1021.07 1021.37 1021.69 1022.03 1022.41 1022.79 1023.18 1023.53 1023.84 1024.09 1024.30 1024.47 1024.63 1024.80 1024.99 1025.23 1025.50 1025.81 1026.12 1026.42 1026.69 1026.92 1027.09 1027.22 1027.33 1027.42 1027.51 1027.61
1010.98 1011.82 1012.66 1013.50 1014.32 1015.14 1015.95 1016.74 1017.49 1018.17 1018.77 1019.28 1019.70 1020.05 1020.34 1020.61 1020.89 1021.19 1021.53 1021.90 1022.29 1022.67 1023.02 1023.33 1023.57 1023.77 1023.93 1024.08 1024.25 1024.45 1024.69 1024.98 1025.29 1025.61 1025.92 1026.19 1026.41 1026.57 1026.69 1026.79 1026.87 1026.97 1027.08
1010.61 1011.30 1012.03 1012.79 1013.58 1014.40 1015.23 1016.05 1016.83 1017.55 1018.19 1018.73 1019.17 1019.54 1019.85 1020.13 1020.42 1020.74 1021.08 1021.46 1021.85 1022.22 1022.56 1022.84 1023.07 1023.24 1023.38 1023.51 1023.66 1023.85 1024.09 1024.38 1024.69 1025.01 1025.31 1025.57 1025.78 1025.94 1026.06 1026.15 1026.24 1026.35 1026.49
1010.42 1010.89 1011.43 1012.04 1012.72 1013.46 1014.26 1015.07 1015.88 1016.64 1017.33 1017.92 1018.43 1018.86 1019.23 1019.58 1019.92 1020.27 1020.65 1021.05 1021.44 1021.81 1022.13 1022.39 1022.59 1022.73 1022.85 1022.95 1023.08 1023.25 1023.47 1023.74 1024.04 1024.34 1024.62 1024.86 1025.05 1025.19 1025.30 1025.39 1025.50 1025.63 1025.80
1010.42 1010.61 1010.91 1011.30 1011.81 1012.43 1013.14 1013.90 1014.70 1015.48 1016.21 1016.88 1017.47 1017.99 1018.45 1018.89 1019.30 1019.73 1020.16 1020.59 1021.01 1021.38 1021.70 1021.94 1022.12 1022.24 1022.33 1022.41 1022.51 1022.66 1022.86 1023.10 1023.36 1023.63 1023.87 1024.07 1024.22 1024.34 1024.42 1024.50 1024.61 1024.76 1024.96
1010.62 1010.53 1010.55 1010.70 1011.00 1011.45 1012.02 1012.70 1013.44 1014.21 1014.97 1015.69 1016.35 1016.96 1017.52 1018.05 1018.56 1019.06 1019.56 1020.04 1020.48 1020.87 1021.19 1021.43 1021.60 1021.71 1021.79 1021.86 1021.95 1022.08 1022.25 1022.46 1022.68 1022.90 1023.09 1023.23 1023.33 1023.39 1023.44 1023.49 1023.58 1023.73 1023.94
1011.03 1010.69 1010.45 1010.37 1010.44 1010.69 1011.10 1011.66 1012.31 1013.03 1013.78 1014.51 1015.22 1015.88 1016.51 1017.12 1017.70 1018.26 1018.81 1019.32 1019.80 1020.21 1020.54 1020.80 1020.98 1021.10 1021.19 1021.26 1021.36 1021.48 1021.63 1021.81 1021.99 1022.16 1022.29 1022.36 1022.39 1022.38 1022.37 1022.37 1022.42 1022.54 1022.75
1011.68 1011.13 1010.69 1010.40 1010.28 1010.34 1010.58 1010.98 1011.51 1012.14 1012.82 1013.51 1014.20 1014.87 1015.52 1016.15 1016.75 1017.34 1017.91 1018.44 1018.93 1019.35 1019.70 1019.98 1020.18 1020.33 1020.45 1020.55 1020.66 1020.79 1020.95 1021.11 1021.26 1021.38 1021.45 1021.46 1021.42 1021.34 1021.25 1021.18 1021.17 1021.24 1021.41
1012.55 1011.89 1011.31 1010.87 1010.59 1010.49 1010.56 1010.81 1011.19 1011.68 1012.24 1012.84 1013.45 1014.06 1014.65 1015.24 1015.81 1016.37 1016.90 1017.42 1017.89 1018.30 1018.66 1018.95 1019.18 1019.36 1019.52 1019.66 1019.81 1019.97 1020.14 1020.30 1020.44 1020.53 1020.56 1020.52 1020.42 1020.27 1020.10 1019.96 1019.88 1019.89 1020.00
1013.61 1012.92 1012.29 1011.77 1011.38 1011.15 1011.09 1011.17 1011.40 1011.73 1012.13 1012.58 1013.05 1013.53 1014.01 1014.48 1014.95 1015.42 1015.88 1016.32 1016.74 1017.12 1017.45 1017.74 1017.98 1018.19 1018.38 1018.57 1018.76 1018.95 1019.15 1019.33 1019.47 1019.56 1019.57 1019.51 1019.37 1019.18 1018.97 1018.77 1018.63 1018.57 1018.61
1014.81 1014.15 1013.53 1013.00 1012.56 1012.25 1012.08 1012.03 1012.09 1012.25 1012.47 1012.74 1013.03 1013.34 1013.65 1013.96 1014.28 1014.61 1014.94 1015.27 1015.59 1015.89 1016.17 1016.42 1016.65 1016.86 1017.07 1017.28 1017.49 1017.72 1017.94 1018.14 1018.31 1018.41 1018.44 1018.39 1018.25 1018.06 1017.83 1017.61 1017.43 1017.32 1017.31
1016.05 1015.47 1014.92 1014.41 1013.97 1013.62 1013.37 1013.21 1013.13 1013.13 1013.18 1013.26 1013.36 1013.48 1013.60 1013.73 1013.87 1014.03 1014.20 1014.38 1014.57 1014.77 1014.95 1015.13 1015.31 1015.48 1015.66 1015.86 1016.07 1016.30 1016.53 1016.75 1016.94 1017.07 1017.13 1017.12 1017.03 1016.87 1016.67 1016.47 1016.29 1016.17 1016.13
1017.23 1016.76 1016.28 1015.83 1015.42 1015.06 1014.77 1014.53 1014.34 1014.21 1014.11 1014.03 1013.96 1013.90 1013.85 1013.80 1013.77 1013.76 1013.77 1013.79 1013.83 1013.89 1013.95 1014.02 1014.09 1014.18 1014.30 1014.43 1014.59 1014.78 1014.99 1015.20 1015.40 1015.56 1015.66 1015.70 1015.67 1015.58 1015.45 1015.30 1015.16 1015.06 1015.02
Thickness
5613 5615 5616 5616 5617 5618 5619 5621 5623 5624 5625 5626 5627 5629 5630 5631 5632 5633 5634 5634 5635 5636 5637 5638 5639 5639 5639 5639 5640 5639 5639 5639 5638 5638 5637 5637 5636 5635 5635 5634 5633 5633 5632
5604 5606 5607 5608 5609 5609 5611 5613 5615 5616 5617 5617 5618 5619 5621 5622 5623 5624 5625 5626 5627 5628 5628 5630 5631 5632 5632 5632 5632 5632 5632 5631 5631 5631 5630 5630 5629 5629 5628 5628 5627 5626 5626
5595 5596 5597 5599 5600 5601 5602 5604 5606 5607 5608 5608 5609 5610 5611 5612 5614 5615 5616 5617 5618 5618 5619 5620 5622 5623 5624 5624 5624 5624 5624 5624 5624 5623 5623 5623 5622 5622 5621 5621 5620 5620 5619
5585 5587 5588 5589 5590 5592 5593 5595 5596 5598 5598 5599 5600 5601 5602 5603 5604 5605 5607 5608 5608 5608 5609 5610 5612 5613 5615 5616 5616 5616 5616 5616 5616 5616 5616 5615 5615 5615 5614 5614 5613 5613 5612
5574 5577 5578 5579 5581 5582 5584 5585 5587 5588 5589 5589 5590 5591 5592 5593 5594 5595 5597 5597 5598 5598 5599 5600 5602 5603 5605 5606 5607 5608 5608 5608 5608 5608 5608 5608 5608 5608 5607 5607 5606 5605 5605
5564 5567 5568 5569 5571 5573 5574 5575 5577 5578 5579 5579 5579 5580 5581 5583 5584 5585 5586 5587 5587 5588 5589 5590 5591 5593 5595 5596 5597 5598 5599 5599 5599 5599 5600 5599 5599 5600 5599 5599 5598 5597 5597
5553 5556 5557 5559 5561 5563 5564 5565 5567 5568 5568 5568 5570 5570 5571 5572 5573 5574 5575 5576 5576 5577 5578 5579 5581 5582 5584 5586 5587 5588 5589 5589 5590 5590 5591 5591 5591 5591 5590 5590 5590 5589 5589
5542 5544 5546 5548 5549 5552 5553 5554 5557 5557 5557 5557 5561 5563 5565 5564 5563 5562 5563 5564 5564 5565 5566 5568 5569 5571 5573 5575 5576 5578 5578 5579 5580 5581 5582 5582 5582 5581 5581 5581 5581 5581 5580
5530 5532 5534 5536 5538 5540 5542 5543 5545 5547 5547 5547 5548 5553 5557 5559 5555 5553 5552 5553 5553 5553 5555 5557 5558 5560 5562 5564 5566 5567 5568 5568 5569 5571 5572 5572 5572 5572 5572 5572 5572 5572 5571
5518 5520 5522 5525 5526 5528 5530 5532 5533 5534 5536 5537 5537 5538 5542 5546 5545 5545 5542 5542 5542 5543 5545 5546 5547 5549 5551 5553 5554 5556 5557 5557 5559 5560 5561 5562 5562 5562 5562 5561 5562 5561 5561
5506 5508 5510 5513 5515 5516 5518 5520 5521 5523 5524 5526 5527 5527 5528 5529 5531 5534 5535 5534 5533 5533 5535 5536 5537 5539 5541 5542 5544 5544 5545 5546 5548 5549 5550 5550 5551 5551 5551 5551 5550 5550 5550
5494 5496 5498 5500 5503 5504 5505 5508 5509 5510 5512 5513 5514 5515 5517 5519 5521 5523 5524 5524 5524 5524 5524 5525 5527 5529 5530 5532 5533 5533 5534 5535 5536 5537 5538 5538 5539 5540 5540 5540 5539 5539 5539
5484 5486 5487 5489 5490 5492 5493 5495 5497 5498 5500 5501 5502 5503 5505 5507 5508 5510 5512 5512 5513 5513 5513 5515 5516 5518 5519 5520 5521 5522 5522 5523 5524 5525 5526 5526 5527 5527 5527 5527 5527 5527 5527
5474 5475 5476 5477 5478 5480 5481 5483 5485 5486 5487 5489 5490 5491 5492 5494 5495 5497 5499 5499 5501 5503 5505 5506 5506 5507 5508 5509 5510 5510 5511 5512 5513 5513 5514 5514 5515 5515 5515 5515 5515 5515 5515
5462 5464 5465 5466 5467 5468 5469 5471 5473 5474 5475 5476 5478 5478 5479 5481 5482 5484 5486 5487 5489 5493 5497 5498 5496 5496 5496 5497 5497 5498 5500 5501 5501 5502 5502 5503 5503 5502 5502 5503 5503 5502 5503
5451 5452 5454 5455 5455 5456 5457 5458 5460 5462 5463 5465 5465 5466 5467 5469 5470 5472 5473 5475 5476 5480 5484 5487 5485 5485 5484 5484 5485 5486 5488 5489 5489 5490 5490 5490 5491 5490 5491 5491 5491 5491 5491
5439 5441 5442 5443 5444 5444 5445 5447 5449 5450 5451 5452 5453 5454 5455 5456 5458 5459 5460 5462 5463 5466 5469 5472 5471 5472 5472 5473 5473 5474 5475 5476 5477 5478 5478 5478 5478 5478 5479 5479 5478 5478 5478
5429 5430 5431 5432 5432 5433 5433 5435 5436 5437 5439 5441 5442 5443 5444 5444 5446 5446 5447 5449 5451 5453 5455 5458 5459 5459 5460 5461 5462 5462 5463 5464 5465 5466 5466 5466 5467 5467 5467 5466 5466 5466 5466
5419 5419 5420 5421 5421 5421 5422 5423 5424 5425 5427 5429 5430 5431 5432 5433 5434 5435 5436 5437 5439 5440 5442 5444 5446 5446 5447 5447 5449 5449 5450 5451 5452 5452 5453 5453 5454 5455 5455 5454 5454 5454 5454
5407 5408 5409 5410 5410 5410 5410 5410 5411 5413 5414 5416 5417 5418 5420 5421 5422 5423 5424 5425 5427 5428 5429 5430 5432 5434 5434 5434 5435 5437 5438 5438 5439 5439 5440 5441 5442 5442 5442 5443 5443 5443 5442
5395 5396 5397 5397 5398 5398 5399 5399 5400 5401 5402 5404 5405 5406 5407 5409 5410 5411 5412 5414 5414 5416 5417 5418 5419 5421 5422 5422 5424 5425 5426 5426 5426 5427 5428 5429 5429 5431 5431 5431 5431 5431 5431
5381 5383 5384 5385 5386 5387 5387 5387 5387 5389 5390 5392 5393 5393 5394 5395 5397 5398 5400 5401 5403 5404 5406 5407 5409 5410 5412 5412 5412 5411 5412 5413 5415 5416 5415 5416 5416 5418 5419 5420 5420 5419 5419
5368 5369 5371 5372 5373 5374 5375 5375 5375 5376 5378 5380 5381 5382 5383 5384 5384 5385 5386 5388 5390 5391 5393 5395 5398 5400 5400 5401 5399 5399 5400 5401 5403 5403 5400 5404 5404 5405 5406 5407 5407 5407 5407
5356 5357 5358 5359 5361 5362 5362 5362 5363 5363 5365 5367 5368 5369 5370 5371 5372 5372 5374 5376 5378 5380 5381 5382 5386 5388 5387 5387 5387 5387 5387 5386 5387 5387 5388 5391 5393 5393 5393 5394 5395 5395 5395
5344 5345 5346 5346 5348 5349 5349 5350 5350 5351 5354 5356 5357 5357 5359 5360 5361 5361 5362 5365 5367 5368 5368 5370 5372 5373 5374 5374 5374 5372 5373 5373 5376 5377 5375 5376 5380 5379 5380 5382 5382 5382 5381
5331 5332 5333 5334 5336 5337 5338 5338 5338 5340 5343 5344 5345 5346 5347 5349 5350 5350 5351 5354 5356 5358 5357 5358 5359 5361 5361 5362 5362 5362 5363 5363 5364 5365 5365 5363 5365 5364 5366 5369 5369 5368 5368